Regional Weather Roundup
Issued by NWS

Home | Current Version | Previous Version | Graphics & Text | Print | Product List | Glossary On
Versions: 1 2 3 4 5 6 7 8 9 10 11 12 13 14 15 16 17 18 19 20 21 22 23 24 25 26 27 28 29 30 31 32 33 34 35 36 37 38 39 40 41 42 43 44 45 46 47 48 49 50
000
ASUS43 KBIS 262201
RWRND

NORTH DAKOTA REGIONAL WEATHER ROUNDUP
NATIONAL WEATHER SERVICE BISMARCK ND
500 PM CDT TUE MAY 26 2015

NOTE: "FAIR" INDICATES FEW OR NO CLOUDS BELOW 12,000 FEET WITH NO
SIGNIFICANT WEATHER AND/OR OBSTRUCTIONS TO VISIBILITY.


NDZ001>003-009>011-017-262300-
NORTHWEST NORTH DAKOTA

CITY           SKY/WX    TMP DP  RH WIND       PRES   REMARKS
WILLISTON      PTSUNNY   81  44  27 SW9       29.87F
MINOT          PTSUNNY   75  44  33 SE10      29.84R
MINOT AFB      PTSUNNY   79  45  29 SE13      29.81F
$$

NDZ018>021-031>035-040>046-262300-
SOUTHWEST NORTH DAKOTA

CITY           SKY/WX    TMP DP  RH WIND       PRES   REMARKS
BISMARCK       MOSUNNY   80  44  27 N8G17     29.86F
DICKINSON      MOSUNNY   76  42  29 SW13G18   29.89F
GARRISON         N/A     72  50  45 E8        29.87F
HETTINGER ARPT MOSUNNY   71  47  42 S12       29.94F
$$

NDZ004>008-012>016-024-026-027-054-262300-
NORTHEAST NORTH DAKOTA

CITY           SKY/WX    TMP DP  RH WIND       PRES   REMARKS
GRAND FORKS    MOSUNNY   85  44  23 VRB3      29.73S
GRND FRKS AFB  DRIZZLE   75  48  38 NW17G30   29.75S
DEVILS LAKE    MOSUNNY   81  43  26 SW13      29.78F
$$

NDZ022-023-025-028>030-036>039-047>053-262300-
SOUTHEAST NORTH DAKOTA

CITY           SKY/WX    TMP DP  RH WIND       PRES   REMARKS
FARGO          PTSUNNY   76  56  49 S12       29.77F
JAMESTOWN      PTSUNNY   76  47  35 W8        29.79F
$$




USA.gov is the U.S. government's official web portal to all federal, state and local government web resources and services.